Regional Weather Roundup
Issued by NWS Albany, NY

Home | Current Version | Previous Version | Text Only | Print | Product List | Glossary On
Versions: 1 2 3 4 5 6 7 8 9 10 11 12 13 14 15 16 17 18 19 20 21 22 23 24 25 26 27 28 29 30 31 32 33 34 35 36 37 38 39 40 41 42 43 44 45 46 47 48 49 50
000
ASUS41 KALY 031010
RWRALY

NEW YORK STATE HOURLY WEATHER ROUNDUP
NATIONAL WEATHER SERVICE ALBANY NY
600 AM EDT FRI JUL 03 2015

NOTE: "FAIR" INDICATES FEW OR NO CLOUDS BELOW 12,000 FEET WITH NO
SIGNIFICANT WEATHER AND/OR NO OBSTRUCTIONS TO VISIBILITY.

NYZ032-033-038>043-046>054-057>066-NYZ062>081-031100-
EAST


CITY           SKY/WX    TMP DP  RH WIND       PRES   REMARKS
ALBANY         PTCLDY    52  47  83 CALM      29.98R
GLENS FALLS    CLEAR     51  49  92 CALM      29.97R
POUGHKEEPSIE   CLEAR     53  51  93 CALM      29.95R
NEWBURGH       CLEAR     55  54  94 CALM      29.97R
MONTGOMERY     PTCLDY    54  53  97 CALM      29.96R
WHITE PLAINS   PTCLDY    62  49  62 N13       29.94R
ISLIP          MOCLDY    64  55  72 N9        29.91R
NEW YORK CITY  PTCLDY    67  52  58 NE6       29.93R
CENTRAL PARK   CLEAR     66  51  58 VRB3      29.97R
$$

NYZ005>009-017-018-044>046-055-056-031100-
CENTRAL


CITY           SKY/WX    TMP DP  RH WIND       PRES   REMARKS
FULTON         CLEAR     49  46  90 S3        29.99R
SYRACUSE       PTCLDY    50  47  89 SE5       29.99R
ROME           CLEAR     46  45  96 CALM      30.01S
ELMIRA         CLEAR     47  46  97 W3        30.02R
BINGHAMTON     CLEAR     51  44  77 CALM      30.01R
MONTICELLO     CLEAR     50  46  87 NW3       30.00R
$$

NYZ026>034-041>043-031100-
NORTH


CITY           SKY/WX    TMP DP  RH WIND       PRES   REMARKS
WATERTOWN      CLEAR     49  45  86 S6        29.98R
FORT DRUM      NOT AVBL
MASSENA        MOCLDY    51  47  86 SW6       29.97R
SARANAC LAKE   PTCLDY    37  37 100 CALM      29.98R
PLATTSBURGH    CLEAR     53  48  83 SW3       29.94R
$$

NYZ001>004-010>016-019>021-031100-
WEST


CITY           SKY/WX    TMP DP  RH WIND       PRES   REMARKS
NIAGARA FALLS  CLEAR     49  46  90 CALM      30.01R
BUFFALO        PTCLDY    50  47  89 CALM      30.02R
DUNKIRK        CLEAR     47  46  97 SE3       30.01S
JAMESTOWN      CLEAR     48  43  81 N3        30.03S
WELLSVILLE     FOG       47  45  93 CALM      30.04F VSB<1/4
ROCHESTER      CLEAR     51  49  92 SW7       30.01R
PENN YAN       CLEAR     51  50  96 SW5       30.02R
$$

             KEY
       WCI = WIND CHILL INDEX
       VSB = VISIBILITY
       HX  = HEAT INDEX
$$



USA.gov is the U.S. government's official web portal to all federal, state and local government web resources and services.